Lid_Strength_Index
0 -2 -2 -2 -2 -1 -1 -1 -0 -1 -1 0 1 1 2 1 1 1 4 2 2 0 1 5 6 7 7 9 8 10 13 13 12 11 10 9 9 8 7 7 7 6 6 4 3
0 -2 -2 -2 -2 -1 -1 -1 -0 -1 -1 -0 0 1 2 3 3 4 0 1 0 1 4 7 7 8 10 9 10 13 14 13 10 10 10 9 8 8 7 8 9 7 5 3 3
-1 -2 -2 -2 -2 -1 -1 -1 0 -1 -1 0 1 1 2 3 5 4 -0 0 0 2 4 5 7 9 11 9 12 13 14 11 9 9 8 8 9 8 8 10 7 8 6 4 4
-2 -2 -1 -1 -1 -1 -1 -1 -1 -1 -1 -0 0 1 2 4 11 5 1 1 1 3 4 6 9 10 12 12 11 13 10 9 8 9 8 8 8 9 9 8 5 5 4 4 4
-2 -2 -1 -1 -1 -0 0 -1 -1 -1 -1 0 1 1 3 7 8 4 2 2 3 3 6 7 10 11 13 11 11 12 10 9 9 9 10 9 9 9 9 7 4 4 4 5 4
-1 -2 -1 -1 -1 -0 -0 -0 -0 -0 -1 -0 0 1 5 10 3 4 4 3 4 4 6 7 10 10 11 11 12 11 10 10 10 10 10 10 11 9 9 6 6 5 5 5 4
-1 -1 -2 -1 -1 -0 0 -1 -0 -1 -1 -0 1 3 6 8 3 3 4 5 4 4 5 6 9 10 11 12 10 10 11 12 11 11 11 11 11 11 10 6 6 6 5 5 4
-1 -1 -1 -1 -1 0 1 0 -0 -0 -1 -1 1 4 8 3 3 5 4 6 5 4 5 5 6 9 11 11 12 13 13 16 14 12 12 11 13 12 10 7 7 7 6 5 5
-1 -1 -1 -1 -0 1 1 1 1 -0 -1 -0 4 5 8 3 6 4 4 7 5 6 6 5 8 10 12 14 16 16 18 18 15 12 12 14 15 13 11 9 8 8 7 6 5
-1 -1 -1 -1 -0 0 1 1 1 1 1 2 4 8 7 8 5 5 5 6 8 7 8 8 10 14 15 15 17 18 18 17 16 13 13 14 15 14 12 11 10 10 10 8 7
-1 -1 -1 -1 0 1 2 3 5 6 5 7 8 10 8 5 4 5 6 7 7 9 11 10 13 17 16 15 14 15 16 16 16 14 13 14 15 14 14 13 12 11 11 11 11
-1 -1 -1 -0 0 1 2 6 7 5 9 6 7 8 6 5 8 7 5 9 9 13 11 12 14 13 12 14 14 15 16 17 15 14 14 16 15 13 13 13 12 11 11 10 9
-1 -1 -1 0 1 2 4 6 3 4 9 8 7 8 8 7 9 9 7 8 11 13 13 13 13 12 13 15 15 17 16 16 15 14 15 17 17 16 13 13 12 10 11 11 10
-1 -1 -1 1 4 4 5 2 2 4 13 12 9 8 9 8 11 7 6 8 11 13 14 13 12 13 14 15 15 17 14 14 14 16 18 16 19 17 15 14 13 12 12 12 10
-1 -1 -0 2 4 5 3 2 3 5 20 11 10 5 7 10 9 9 6 8 12 12 13 15 14 13 14 14 14 16 13 14 15 17 18 19 19 17 18 16 14 14 14 12 12
-1 -1 -1 3 3 3 3 3 5 14 20 14 10 10 11 10 10 9 8 7 8 11 12 14 12 13 14 14 13 13 15 15 16 17 22 18 19 19 18 16 15 15 14 14 13
-1 -1 0 2 5 2 3 6 14 18 12 14 12 11 11 11 11 11 11 12 13 16 16 14 14 13 13 15 14 15 16 21 21 24 22 20 21 18 17 16 15 14 14 13 13
-1 -1 -0 1 2 3 5 12 17 15 14 10 10 11 13 11 12 12 12 14 12 14 16 17 18 14 13 14 16 17 16 20 23 24 22 19 21 18 16 14 14 14 13 13 13
-0 3 2 2 3 3 9 17 17 14 12 12 11 14 13 11 12 13 13 13 13 14 16 18 18 13 13 13 13 16 17 16 20 24 22 21 20 17 16 15 15 14 14 14 14
4 5 3 2 3 6 12 14 14 11 11 11 15 13 15 13 14 15 14 12 13 12 12 15 18 15 13 12 13 15 14 18 20 25 26 23 22 20 18 16 15 15 14 14 14
6 9 3 2 5 9 15 14 13 10 11 13 14 14 13 14 13 15 14 13 11 12 12 13 15 16 13 15 16 17 18 18 17 20 23 25 22 18 18 16 15 15 14 14 14
8 12 2 3 11 13 13 12 9 11 10 12 13 12 12 12 13 13 15 13 10 12 14 13 15 17 17 14 13 15 17 17 17 22 22 22 22 17 16 16 15 15 14 14 13
8 9 3 5 15 16 13 11 9 11 11 11 12 12 12 13 14 13 13 11 10 11 13 12 17 20 18 16 15 16 16 17 18 18 20 22 21 16 16 16 15 15 15 14 13
12 14 11 9 10 13 15 14 13 9 10 9 11 11 12 14 12 13 12 11 11 11 9 10 15 18 20 19 16 17 16 16 17 21 20 20 21 18 16 16 15 14 14 14 13
12 14 15 18 15 10 12 12 13 14 10 10 11 11 13 15 15 14 12 11 10 10 11 12 18 17 17 17 16 17 15 15 17 17 19 19 19 17 16 15 14 14 13 13 13
11 13 9 12 11 11 11 14 13 12 12 13 13 11 11 14 14 15 13 11 12 11 12 13 18 17 20 16 16 17 17 15 15 16 17 18 19 16 15 15 15 14 13 12 12
6 8 11 11 14 13 13 11 11 10 10 10 11 11 12 11 10 10 9 10 10 11 12 14 17 20 23 18 17 21 17 17 16 14 15 18 15 13 15 14 14 13 13 12 12